This demonstration page uses our WeatherBlox Daily Observations layout. Learn more.

Left ArrowRight Arrow

39.12711, -84.51439

Hourly Observations for June 3, 2021

Temp ( °F °C ) Dew Point ( °F °C ) Humidity (%) Winds ( mph kmh ) Pressure ( in mb ) Visibility ( mi km ) Precip ( " mm )
12:15 am 00:15 Cloudy with Heavy Rain 65 18.3 63 17.2 93 93 S 7 11 29.95 1014 2 3 0.15 3.81
12:26 am 00:26 Cloudy with Light Rain 65 18.3 64 17.8 97 97 SSE 3 6 29.95 1014 3 5 0.18 4.57
12:37 am 00:37 Cloudy with Light Rain 65 18.3 63 17.2 93 93 WNW 5 7 29.95 1014 4 6 0.19 4.83
12:53 am 00:53 Cloudy with Light Rain 65 18.3 64 17.8 97 97 N N/A 29.94 1014 9 14 0.20 5.08
1:53 am 01:53 Cloudy with Mist and Fog 64 17.8 63 17.2 96 96 N N/A 29.93 1014 3 4 0.00 0.00
2:19 am 02:19 Cloudy with Mist and Fog 64 17.8 63 17.2 96 96 N N/A 29.92 1013 4 6 N/A
2:53 am 02:53 Mostly Clear 64 17.8 62 16.7 93 93 N N/A 29.91 1013 9 14 N/A
3:15 am 03:15 Mostly Cloudy with Mist and Fog 63 17.2 62 16.7 97 97 N N/A 29.91 1013 5 8 N/A
3:53 am 03:53 Cloudy 65 18.3 63 17.2 93 93 N N/A 29.91 1013 10 16 N/A
4:53 am 04:53 Cloudy with Mist and Fog 64 17.8 63 17.2 96 96 N N/A 29.91 1013 5 8 N/A
5:24 am 05:24 Cloudy 65 18.3 63 17.2 93 93 SSW 6 9 29.90 1013 10 16 N/A
5:46 am 05:46 Cloudy with Light Rain 65 18.3 63 17.2 93 93 SSW 3 6 29.90 1013 5 8 0.02 0.51
5:53 am 05:53 Cloudy with Light Rain 65 18.3 63 17.2 93 93 S 5 7 29.89 1012 9 14 0.02 0.51
6:49 am 06:49 Mostly Cloudy 64 18 63 17 94 94 S 3 6 29.91 1013 8 13 0.00 0.00
6:53 am 06:53 Mostly Cloudy 65 18.3 63 17.2 93 93 SSW 6 9 29.91 1013 9 14 0.00 0.00
7:53 am 07:53 Mostly Cloudy with Rain 66 18.9 64 17.8 93 93 SSW 6 9 29.92 1013 3 4 0.03 0.76
8:00 am 08:00 Mostly Cloudy with Heavy Rain 66 18.9 64 17.8 93 93 S 5 7 29.92 1013 4 6 0.04 1.02
8:53 am 08:53 Mostly Cloudy with Mist and Fog 67 19.4 65 18.3 93 93 S 5 7 29.93 1014 6 10 0.05 1.27
9:53 am 09:53 Cloudy 68 20 65 18.3 90 90 S 6 9 29.93 1014 10 16 N/A
10:53 am 10:53 Cloudy 69 20.6 65 18.3 87 87 S 7 11 29.93 1014 10 16 N/A
11:30 am 11:30 Cloudy with Thunderstorms 68 20 65 18.3 90 90 S 6 9 29.93 1013 5 8 0.02 0.51
11:48 am 11:48 Cloudy with Nearby Thunderstorms 66 19 64 18 94 94 SSE 8 13 29.93 1014 4 6 0.06 1.52
11:53 am 11:53 Cloudy with Nearby Thunderstorms 67 19.4 65 18.3 93 93 SE 10 17 29.92 1013 3 5 0.08 2.03
12:17 pm 12:17 Cloudy with Light Rain 67 19.4 65 18.3 93 93 SSE 6 9 29.91 1013 5 8 0.03 0.76
12:24 pm 12:24 Cloudy with Rain 68 20 65 18.3 90 90 SW 8 13 29.92 1013 6 10 0.04 1.02
12:53 pm 12:53 Cloudy 69 20.6 64 17.8 84 84 S 14 22 29.93 1014 7 11 0.04 1.02
1:02 pm 13:02 Cloudy 70 21.1 64 17.8 82 82 SSW 10 17 29.93 1013 7 11 N/A
1:53 pm 13:53 Cloudy with Light Rain 69 20.6 63 17.2 81 81 S 6 9 29.93 1014 10 16 0.00 0.00
2:53 pm 14:53 Cloudy 68 20 64 17.8 87 87 S 5 7 29.91 1013 10 16 0.00 0.00
3:19 pm 15:19 Mostly Cloudy with Thunderstorms 68 20 64 17.8 87 87 S 6 9 29.90 1012 10 16 0.00 0.00
3:53 pm 15:53 Cloudy with Light Rain 68 20 65 18.3 90 90 N 6 9 29.88 1012 10 16 0.04 1.02
4:05 pm 16:05 Cloudy with Light Rain 68 20 65 18.3 90 90 WNW 3 6 29.90 1012 10 16 0.00 0.00
4:53 pm 16:53 Mostly Cloudy 71 21.7 68 20 90 90 VRB 3 6 29.88 1012 10 16 0.00 0.00
5:51 pm 17:51 Mostly Cloudy with Nearby Thunderstorms 72 22 66 19 83 83 S 6 9 29.88 1012 10 16 N/A
5:53 pm 17:53 Mostly Cloudy with Nearby Thunderstorms 72 22.2 66 18.9 82 82 S 6 9 29.89 1012 10 16 N/A
6:05 pm 18:05 Mostly Cloudy with Thunderstorms 71 21.7 65 18.3 81 81 SSW 6 9 29.90 1012 10 16 N/A
6:12 pm 18:12 Cloudy with Thunderstorms 71 21.7 64 17.8 79 79 undefined N/A 29.91 1013 10 16 N/A
6:53 pm 18:53 Cloudy 66 18.9 59 15 78 78 NNW 7 11 29.90 1013 10 16 0.00 0.00
7:53 pm 19:53 Mostly Cloudy with Light Rain 64 17.8 61 16.1 90 90 ENE 3 6 29.90 1012 10 16 0.01 0.25
8:53 pm 20:53 Partly Cloudy 64 17.8 60 15.6 87 87 N N/A 29.91 1013 10 16 0.00 0.00
9:53 pm 21:53 Clear with Fog 59 15 58 14.4 96 96 N N/A 29.94 1014 10 16 N/A
10:53 pm 22:53 Partly Cloudy 60 15.6 59 15 96 96 N N/A 29.97 1015 7 11 N/A
11:53 pm 23:53 Mostly Cloudy 60 15.6 59 15 96 96 N N/A 29.98 1015 10 16 N/A

Powered by AerisWeather